Temperature
12 12 12 12 12 12 12 12 12 12 12 12 12 12 12 12 12 12 12 12 12 12 12 11 11 11 11 11 11 11 11 11 11 11 11 11 11 11 11 11 11 11 11
12 12 12 12 12 12 12 12 12 12 12 12 12 11 11 11 11 11 11 11 11 11 11 11 11 11 11 11 11 11 11 11 11 11 11 11 11 11 11 10 10 10 10
12 12 12 12 12 12 12 12 12 12 12 11 11 11 11 11 11 11 11 11 11 11 11 11 11 11 11 11 10 10 11 11 10 10 10 10 10 10 10 10 10 10 10
11 11 12 12 12 12 11 11 11 11 11 11 11 11 11 11 11 11 11 11 11 11 11 11 11 11 10 10 10 10 10 10 10 10 10 10 10 10 10 9 10 9 9
11 11 11 11 11 11 11 11 11 11 11 11 11 11 11 11 11 11 11 11 10 10 10 10 10 10 10 10 10 10 10 10 10 10 10 9 9 9 9 9 9 9 9
11 11 11 11 11 11 11 11 11 11 11 11 10 10 10 10 10 10 10 10 10 10 10 10 10 10 10 10 10 10 10 10 9 9 9 9 9 9 9 9 9 8 8
11 11 11 11 11 11 11 10 10 10 10 10 10 10 10 10 10 10 10 10 10 10 10 10 10 10 10 9 9 9 9 9 9 9 9 9 9 8 8 8 8 8 8
10 10 10 10 10 10 10 10 10 10 10 10 9 9 9 9 9 9 9 9 9 9 9 9 9 9 9 9 9 9 9 9 9 9 9 9 8 8 8 8 8 8 8
10 10 10 10 10 10 10 10 10 10 9 9 9 9 9 8 8 9 9 9 9 9 9 9 9 9 9 9 9 9 9 9 8 8 8 8 8 8 8 8 8 7 7
10 10 10 9 9 9 9 9 9 9 9 9 9 9 9 9 8 8 8 8 8 8 8 8 8 8 8 8 8 8 8 8 8 8 8 8 8 7 7 7 7 7 7
9 9 9 9 9 9 9 9 9 9 9 9 8 8 8 8 8 8 7 8 8 8 8 8 8 8 8 8 8 8 8 8 8 8 7 7 7 7 7 7 7 7 7
9 8 9 9 9 9 9 8 8 8 8 8 8 8 8 8 8 8 8 7 7 7 7 7 7 7 7 7 7 7 7 7 7 7 7 7 7 7 7 7 7 6 6
8 8 8 8 8 8 8 8 8 8 8 8 8 8 8 8 8 8 7 7 7 7 7 7 7 7 7 7 7 7 7 7 7 7 7 6 6 6 6 6 6 6 6
8 8 8 8 8 8 8 8 8 8 8 8 8 7 7 7 7 7 7 7 6 6 6 6 6 6 6 6 6 6 6 6 6 6 6 6 6 6 6 6 6 6 6
7 7 7 7 7 7 7 7 7 7 7 7 7 7 7 7 7 7 7 6 6 5 5 6 6 6 6 6 5 6 6 6 6 6 5 5 5 5 5 5 5 5 5
7 7 7 7 7 7 7 7 7 7 7 7 7 6 6 6 6 6 6 6 6 6 5 5 5 5 5 5 5 5 5 5 5 5 5 5 5 5 5 5 5 5 5
7 7 7 6 6 6 6 6 6 6 6 6 6 6 6 6 6 6 6 6 5 5 5 5 5 5 5 5 5 4 4 4 4 4 4 4 4 4 4 4 4 4 4
6 6 6 6 6 6 6 6 6 6 6 6 6 6 6 6 5 5 5 5 5 5 4 4 4 4 4 4 4 4 4 4 4 4 4 4 4 4 4 4 4 4 4
6 6 6 6 5 5 5 5 5 5 5 5 5 5 5 5 5 5 5 5 5 4 4 4 4 4 4 4 4 4 3 3 3 3 3 3 3 4 4 3 3 3 3
5 5 5 5 5 5 5 5 5 5 5 5 5 5 5 5 5 4 4 4 4 4 4 3 3 3 3 3 3 3 3 3 3 3 3 3 3 3 3 3 3 3 3
5 5 5 4 4 4 5 4 5 5 4 5 4 4 4 4 4 4 4 4 4 3 3 3 3 3 3 3 3 2 2 2 2 2 3 3 3 3 3 3 3 2 2
4 4 4 4 4 4 4 4 4 4 4 4 4 4 4 4 4 3 3 3 3 3 3 3 3 2 2 2 2 2 2 2 2 2 2 2 2 2 2 2 2 2 2
4 4 4 4 4 4 4 4 4 4 4 4 3 3 3 3 3 3 3 3 3 2 2 2 2 2 2 2 1 1 1 1 1 1 1 2 2 2 2 2 2 1 1
4 3 3 3 3 3 3 3 3 3 3 3 3 3 3 3 3 2 2 2 2 2 2 2 2 2 1 1 1 1 1 1 1 1 0 0 1 1 1 1 1 1 1
3 3 3 3 3 3 3 3 3 3 3 3 2 2 2 2 2 2 2 2 2 2 2 1 1 1 1 1 1 0 0 -0 -0 -0 -0 -0 0 0 0 1 0 -0 -0
3 2 2 2 2 3 2 2 2 2 2 2 2 2 2 2 2 1 1 1 1 1 1 1 1 1 1 0 0 -0 -0 -1 -1 -1 -1 -1 -1 -1 -1 -1 -1 -1 -1
Wind_Speed
3 3 3 4 3 3 3 2 2 2 3 3 3 3 4 5 7 8 8 9 9 8 7 6 5 5 5 5 5 5 5 5 4 5 5 5 5 5 5 6 6 6 6
3 2 2 2 2 2 2 2 3 3 2 2 2 3 4 5 6 8 8 8 8 8 7 6 5 5 5 4 5 5 5 5 5 4 4 4 4 4 4 5 5 6 6
4 3 2 2 2 2 1 1 3 3 2 2 2 3 4 4 5 7 8 8 8 8 7 6 5 5 5 4 4 4 4 5 4 4 4 4 4 4 4 4 4 5 6
5 3 2 1 3 3 2 1 2 2 2 2 2 2 2 3 5 6 7 7 6 6 6 6 6 5 4 3 3 3 3 4 4 4 4 4 3 3 3 4 4 5 5
5 3 2 2 3 2 1 1 2 2 2 2 2 1 1 1 2 4 5 6 6 6 5 5 5 5 4 4 3 3 2 3 3 3 3 3 3 3 3 3 4 4 4
5 4 3 2 3 2 1 1 2 2 2 2 2 2 1 1 2 2 3 5 5 5 4 4 4 3 3 3 3 3 2 2 2 2 3 3 3 4 3 3 3 3 4
5 4 3 2 2 2 2 2 2 2 2 2 2 1 1 1 2 2 2 2 3 3 3 3 3 3 3 3 3 3 3 2 2 2 3 4 4 4 3 3 3 4 4
5 4 3 3 2 2 2 2 2 2 1 2 2 2 0 1 1 1 1 2 2 2 2 2 2 2 2 3 2 2 3 3 3 4 4 5 4 4 4 4 4 4 5
4 4 4 3 2 2 3 2 2 2 2 1 1 2 2 2 1 1 2 2 2 1 1 2 2 1 1 2 2 1 2 4 5 5 5 6 5 4 4 5 4 5 5
4 4 3 3 2 2 3 2 2 2 3 2 1 0 1 2 2 1 1 2 2 2 2 2 2 2 2 2 2 1 1 3 5 6 7 7 7 6 5 5 5 6 6
3 4 4 3 2 2 2 2 2 2 1 2 2 1 1 0 1 2 2 2 2 2 2 2 2 2 2 2 2 1 2 4 6 7 7 7 7 8 7 6 7 7 7
2 3 3 3 2 2 2 2 2 2 2 2 1 2 2 1 2 2 2 2 2 2 2 2 2 2 2 2 2 1 3 5 7 8 8 7 8 8 9 8 8 8 8
2 3 2 3 2 2 2 2 2 2 2 2 2 2 1 1 1 1 1 1 1 1 1 2 3 3 3 3 3 3 4 5 7 8 8 8 8 8 9 9 9 9 9
4 4 3 2 2 2 2 2 2 2 1 1 2 2 1 1 1 1 2 2 1 2 2 3 2 4 3 3 4 5 5 6 8 8 9 9 9 9 9 9 9 10 10
4 5 4 3 3 3 2 2 2 2 2 2 2 2 1 1 1 1 1 2 3 3 3 3 2 3 4 4 5 5 6 7 9 9 9 9 9 10 10 10 10 10 11
5 6 5 4 4 3 3 3 2 2 2 2 2 2 2 1 1 2 2 2 2 3 3 3 2 2 4 4 6 6 7 8 9 10 10 11 11 11 11 11 11 11 11
5 6 6 5 5 4 4 4 3 3 3 3 2 3 3 2 2 2 2 2 3 3 4 3 2 2 2 3 4 6 7 8 8 10 11 12 12 11 12 12 12 12 12
5 5 5 5 5 5 4 4 4 4 4 4 4 3 3 2 3 3 3 3 3 3 4 5 3 2 3 4 3 4 5 7 8 10 12 12 12 12 12 12 12 12 12
5 5 5 5 5 5 4 4 4 4 4 4 4 4 4 3 4 3 3 4 3 4 4 4 4 3 3 2 3 3 4 5 7 9 10 12 12 13 13 13 13 12 12
5 5 5 5 5 5 4 4 4 4 4 4 4 4 5 5 5 4 4 4 3 3 3 4 4 3 3 3 2 3 4 3 4 6 8 10 12 13 13 13 12 12 12
5 4 4 4 4 4 4 4 4 4 4 4 4 4 5 6 6 5 4 4 4 4 4 4 4 4 3 3 3 3 4 3 4 3 4 5 6 7 9 11 11 12 12
4 4 4 4 4 3 4 5 3 3 4 4 4 4 4 5 6 7 8 8 7 6 5 5 5 5 6 4 4 3 3 3 4 2 2 5 4 5 6 8 11 12 12
4 4 4 4 4 4 5 5 4 3 3 4 4 4 4 4 4 4 5 6 7 9 10 7 7 7 6 5 4 4 4 4 5 3 2 6 4 6 7 10 12 12 12
4 4 4 4 4 4 6 6 5 3 4 4 5 5 4 4 4 4 4 4 5 6 8 7 7 7 5 4 4 5 5 4 4 3 3 5 4 5 6 7 11 12 12
4 4 4 4 4 4 6 6 4 3 4 4 4 4 4 4 6 5 4 4 5 6 7 9 9 8 8 8 5 2 2 3 5 4 3 3 3 4 4 4 7 9 11
3 3 3 3 4 4 5 6 5 3 3 3 3 3 5 5 5 5 4 4 6 6 4 5 5 7 6 7 8 5 5 4 4 4 3 2 2 2 4 3 3 5 8
Wind_Direction
138 135 134 139 148 148 171 175 146 125 108 95 101 111 110 104 109 106 99 101 98 98 94 88 86 82 82 78 74 69 64 57 54 56 54 51 49 41 40 35 30 27 23
128 128 117 122 124 135 172 169 132 126 115 93 79 78 90 98 106 114 113 104 101 98 95 88 85 81 78 75 69 69 64 55 55 52 45 44 40 36 37 33 28 24 20
123 119 123 122 123 132 141 106 103 103 104 95 69 60 64 70 94 109 113 115 108 100 98 94 87 81 75 72 66 68 64 55 55 50 45 37 32 24 20 18 19 17 13
127 118 119 123 121 117 101 97 112 108 103 100 86 65 66 65 69 88 98 105 110 109 109 105 96 81 73 70 66 64 61 54 55 47 38 27 22 16 7 3 8 3 3
134 119 116 119 120 102 84 126 106 124 123 99 90 88 85 98 93 91 94 95 99 106 112 119 114 99 79 68 57 46 44 47 42 35 20 9 3 356 345 350 354 358 2
138 126 113 114 115 105 102 110 118 109 121 124 101 75 81 114 97 97 106 106 107 113 116 118 123 115 105 83 54 31 20 17 10 8 8 352 337 331 323 335 342 346 347
138 132 128 119 113 128 135 120 108 117 117 115 99 61 7 107 125 135 117 112 111 121 124 114 113 116 118 101 61 35 17 358 337 335 340 336 328 322 305 313 318 324 332
139 140 134 140 132 133 121 110 106 118 149 144 141 130 125 328 298 187 156 157 157 127 124 119 111 113 110 112 90 38 7 352 340 336 324 321 316 319 318 303 298 308 315
130 125 130 133 149 150 151 142 135 127 156 206 166 145 155 201 224 247 213 182 178 182 165 137 128 130 126 121 122 80 338 326 317 314 322 324 311 306 307 315 315 312 310
136 133 129 128 138 140 146 156 139 148 156 186 237 225 198 158 157 206 262 225 204 210 216 189 168 186 182 157 143 115 306 301 303 302 304 311 314 305 304 306 314 317 317
141 141 136 130 139 145 151 155 152 164 177 188 190 206 250 271 188 175 223 239 255 246 233 213 194 194 192 189 187 224 273 284 292 293 294 297 305 311 302 302 305 309 308
153 147 140 139 143 150 162 171 178 184 200 204 209 202 191 198 210 189 208 221 238 247 251 232 204 199 190 195 211 246 279 282 285 289 288 291 296 302 308 304 300 301 303
174 177 163 159 160 167 167 164 170 190 193 191 205 224 218 218 205 202 189 218 244 255 244 248 214 204 204 202 223 247 274 286 287 284 284 289 294 295 298 299 299 297 298
183 176 165 164 163 166 169 164 172 192 186 192 212 213 229 234 214 200 185 175 249 267 245 245 238 205 206 214 236 243 262 272 281 283 282 285 287 287 288 288 292 293 293
173 166 167 170 175 171 169 165 181 194 187 205 209 206 216 228 207 208 187 173 184 236 249 238 230 217 214 233 248 246 258 265 272 276 280 281 283 283 283 284 288 291 289
165 165 169 172 181 179 178 176 179 187 187 203 206 204 216 218 207 206 202 210 206 212 244 235 234 229 211 238 255 258 263 271 268 270 275 276 276 277 279 281 283 284 285
162 168 172 176 180 184 183 182 191 189 197 202 203 210 222 214 216 221 216 217 224 218 245 264 253 235 223 231 255 264 265 267 270 268 273 274 273 275 277 279 280 281 282
168 172 174 178 180 186 185 185 197 202 205 207 209 209 223 216 218 223 220 221 224 222 231 254 260 254 253 238 240 254 265 270 271 269 272 275 275 277 279 280 279 278 277
166 172 174 181 184 189 191 196 199 205 213 214 209 210 220 212 227 228 226 226 229 235 231 237 253 254 260 254 264 268 266 264 272 272 275 276 275 277 279 280 279 277 276
166 176 181 184 187 190 191 197 198 205 216 220 214 217 221 214 219 220 224 227 230 233 233 238 247 254 255 256 248 262 280 271 272 278 278 278 276 277 277 278 278 276 276
172 175 178 183 189 191 195 195 198 207 214 222 222 223 227 221 220 223 227 223 223 233 236 237 244 252 250 247 245 242 261 279 276 267 272 276 278 277 278 275 273 273 276
171 173 181 185 195 205 195 196 204 212 215 216 224 229 231 224 227 235 240 237 228 229 233 237 245 245 250 246 238 239 251 278 283 280 291 286 275 270 268 268 273 275 276
171 181 186 188 202 206 197 202 212 214 221 224 228 227 234 234 228 228 245 251 248 248 246 241 242 246 247 242 236 243 241 249 257 261 290 284 275 272 274 275 276 276 278
179 189 197 201 205 214 202 206 215 217 226 229 229 223 221 227 228 228 233 245 248 250 249 242 237 242 243 231 224 236 243 260 274 266 240 268 279 276 283 276 273 276 282
188 192 191 199 205 211 206 206 204 207 224 233 231 227 224 230 238 234 226 243 258 262 263 256 253 250 253 259 252 247 244 260 276 269 228 240 274 291 288 275 271 277 287
187 189 197 199 202 207 213 210 204 203 220 232 235 233 236 242 243 242 230 233 248 255 251 260 258 260 253 254 254 231 222 242 263 268 234 223 271 309 301 278 272 287 291
Height
1516 1517 1519 1521 1522 1523 1525 1526 1527 1528 1529 1530 1531 1532 1533 1534 1535 1536 1536 1537 1537 1538 1538 1539 1539 1539 1539 1539 1540 1540 1540 1540 1540 1540 1540 1540 1539 1539 1539 1538 1538 1538 1537
1515 1516 1517 1519 1521 1522 1523 1525 1526 1527 1528 1529 1530 1531 1532 1533 1534 1534 1535 1535 1536 1537 1537 1538 1538 1538 1538 1538 1538 1538 1538 1538 1538 1538 1538 1538 1538 1538 1538 1537 1537 1536 1535
1513 1514 1516 1517 1519 1520 1522 1523 1524 1525 1527 1528 1529 1530 1531 1531 1532 1533 1533 1534 1534 1535 1536 1536 1536 1537 1537 1537 1537 1537 1537 1537 1537 1537 1536 1536 1536 1536 1536 1535 1535 1534 1534
1511 1513 1514 1515 1517 1518 1520 1521 1522 1523 1525 1526 1527 1528 1529 1530 1530 1531 1532 1532 1533 1534 1534 1535 1535 1535 1535 1535 1535 1535 1535 1535 1535 1535 1535 1535 1534 1534 1533 1533 1533 1532 1532
1509 1511 1512 1513 1515 1516 1517 1519 1520 1521 1522 1524 1525 1526 1527 1527 1528 1529 1530 1531 1531 1532 1532 1533 1533 1533 1534 1534 1534 1534 1533 1533 1533 1533 1533 1533 1532 1532 1531 1531 1531 1530 1530
1507 1508 1510 1511 1512 1513 1515 1516 1518 1519 1520 1522 1523 1524 1525 1526 1527 1527 1528 1529 1530 1530 1531 1531 1531 1531 1531 1531 1532 1532 1531 1531 1531 1531 1531 1530 1530 1529 1529 1528 1528 1528 1527
1504 1506 1507 1508 1510 1511 1512 1514 1515 1517 1518 1519 1521 1522 1523 1524 1525 1526 1526 1527 1527 1528 1528 1529 1529 1529 1529 1529 1529 1529 1529 1529 1529 1529 1528 1528 1527 1527 1526 1526 1525 1525 1525
1501 1502 1504 1505 1507 1508 1510 1511 1513 1514 1515 1517 1518 1519 1521 1523 1523 1524 1524 1525 1525 1526 1526 1526 1527 1527 1527 1527 1527 1527 1527 1527 1526 1526 1526 1525 1525 1524 1524 1523 1523 1522 1522
1498 1500 1501 1503 1505 1506 1507 1508 1510 1511 1512 1515 1516 1518 1519 1519 1520 1521 1522 1523 1523 1523 1524 1524 1524 1524 1524 1524 1524 1524 1524 1524 1524 1523 1523 1522 1522 1521 1521 1520 1520 1519 1519
1495 1497 1499 1501 1502 1503 1505 1506 1507 1509 1510 1512 1514 1515 1517 1517 1518 1518 1520 1520 1521 1521 1521 1521 1521 1521 1521 1521 1521 1521 1521 1521 1521 1520 1520 1519 1519 1518 1518 1517 1517 1516 1515
1493 1494 1495 1497 1499 1501 1502 1503 1505 1506 1508 1509 1511 1512 1513 1514 1515 1515 1515 1517 1517 1518 1518 1518 1518 1518 1519 1519 1518 1518 1518 1518 1518 1517 1517 1516 1515 1514 1514 1514 1513 1512 1512
1490 1491 1492 1494 1496 1498 1499 1501 1502 1503 1505 1507 1508 1509 1510 1511 1512 1512 1512 1512 1513 1514 1515 1515 1515 1515 1515 1515 1515 1515 1515 1514 1514 1513 1513 1512 1511 1511 1510 1510 1509 1508 1508
1486 1488 1490 1491 1494 1495 1497 1498 1499 1501 1502 1503 1505 1506 1507 1508 1509 1509 1509 1509 1509 1510 1511 1511 1511 1512 1512 1512 1512 1512 1511 1510 1510 1510 1509 1508 1507 1507 1506 1505 1505 1504 1504
1483 1485 1487 1488 1491 1493 1494 1495 1496 1498 1499 1500 1501 1502 1503 1504 1505 1506 1506 1506 1506 1506 1506 1507 1507 1508 1508 1508 1508 1508 1507 1507 1506 1506 1505 1504 1503 1503 1502 1501 1500 1500 1499
1480 1482 1483 1485 1488 1489 1491 1492 1493 1494 1495 1497 1498 1499 1499 1500 1501 1502 1503 1503 1504 1502 1502 1502 1503 1503 1504 1504 1504 1503 1503 1502 1502 1501 1500 1500 1499 1498 1498 1497 1496 1495 1494
1476 1478 1480 1482 1484 1486 1488 1489 1490 1491 1492 1493 1494 1495 1495 1496 1497 1498 1499 1499 1499 1499 1498 1498 1499 1500 1499 1499 1499 1499 1498 1498 1497 1497 1496 1495 1494 1494 1493 1492 1491 1490 1490
1473 1475 1477 1479 1481 1483 1484 1485 1486 1487 1488 1489 1490 1491 1491 1492 1493 1493 1494 1494 1495 1495 1494 1493 1494 1495 1495 1494 1494 1494 1493 1493 1492 1492 1491 1490 1490 1489 1488 1487 1486 1485 1484
1469 1471 1473 1475 1477 1479 1481 1481 1482 1483 1484 1484 1485 1486 1487 1488 1488 1489 1489 1490 1490 1490 1490 1488 1489 1490 1490 1489 1489 1489 1488 1488 1487 1487 1486 1485 1485 1484 1483 1482 1481 1480 1479
1466 1468 1470 1472 1473 1475 1476 1477 1478 1479 1480 1481 1481 1482 1483 1484 1484 1484 1485 1485 1485 1485 1485 1484 1484 1485 1485 1485 1484 1484 1483 1483 1482 1482 1481 1480 1479 1478 1477 1476 1475 1474 1473
1462 1465 1466 1468 1470 1471 1472 1474 1475 1475 1476 1477 1477 1478 1479 1479 1480 1480 1480 1480 1480 1481 1481 1480 1479 1479 1480 1479 1479 1478 1478 1477 1477 1476 1476 1475 1474 1473 1472 1471 1470 1469 1468
1459 1461 1462 1464 1466 1467 1468 1470 1471 1471 1472 1472 1473 1474 1475 1475 1475 1476 1476 1476 1476 1476 1476 1475 1474 1474 1474 1474 1474 1473 1473 1472 1471 1471 1470 1469 1468 1467 1466 1465 1464 1463 1462
1455 1457 1458 1460 1462 1463 1464 1465 1467 1467 1468 1468 1468 1469 1470 1470 1471 1471 1471 1471 1471 1471 1471 1470 1469 1469 1469 1469 1469 1468 1468 1467 1465 1466 1464 1463 1463 1461 1460 1459 1458 1456 1455
1451 1453 1454 1456 1458 1459 1460 1461 1462 1463 1463 1464 1464 1464 1464 1466 1466 1466 1466 1466 1466 1466 1467 1466 1465 1464 1464 1464 1464 1463 1462 1461 1460 1460 1459 1456 1457 1455 1454 1453 1452 1451 1449
1448 1449 1451 1452 1454 1455 1456 1457 1458 1458 1459 1459 1460 1460 1460 1461 1461 1461 1461 1460 1460 1461 1461 1460 1460 1459 1459 1459 1459 1458 1457 1456 1455 1454 1454 1451 1450 1449 1447 1446 1445 1444 1443
1445 1446 1447 1448 1449 1451 1452 1453 1453 1454 1454 1455 1455 1456 1456 1456 1456 1456 1456 1455 1454 1455 1455 1455 1455 1454 1454 1454 1453 1453 1451 1451 1448 1447 1448 1446 1443 1442 1440 1439 1438 1438 1436
1441 1442 1443 1444 1446 1447 1448 1449 1449 1450 1450 1450 1451 1451 1452 1451 1451 1451 1451 1450 1449 1449 1449 1449 1448 1448 1448 1448 1447 1447 1446 1445 1443 1442 1441 1441 1438 1437 1433 1431 1431 1431 1430